Главная страница
METAR-TAF:

METAR-TAF

Аэропорты :

Ангун

Angoon, Аляска, США

широта: 57-30N, долгота: 134-35W, высота над уровнем моря: 0 м

Текущие метеонаблюдения

Эта сводка был подготовлена 7 минут назад, в 19:56 UTC
Ветер 3 Узел переменных направлений
Температура 11°C
Влажность 62%
Давление 1022 hPa
Видимость: 16.1 км
ясное небо

METAR: PAGN 181956Z AUTO VRB03KT 10SM CLR 11/04 A3017 RMK AO2 SLP206 T01060044

Время: 12:03 (20:03 UTC)


TAF: отсутствует

Метеонаблюдения и прогнозы для более 4000 аэропортов (сводки METAR и TAF).

Имеющиеся станции представлены на карте желтыми и красными точками.

Чтобы увидеть название станции, наведите на нее мышь.

Затем щелкните, чтобы увидеть метеонаблюдения и метеопрогнозы.

Управление картой: чтобы увеличить масштаб, щелкните зеленые кнопки с черным крестиком; чтобы уменьшить масштаб, щелкните зеленую кнопку с тире; для просмотра соседних карт щелкайте зеленые стрелки.


METAR-TAF: